Surface/Precipitation History
12/05/2016 01:13  to  12/6/2016 01:13
Change End Date:
Date/Time
(MST)
Sf
Temp Chem Water Layer Surface Precipitation
Sfc Pvt Sub Frz Factor Pct Dpth DpthThk IcePct Cond Salin FI Type Intens Accum Rate
12/06/2016 01:05 Ice Warning 9.5F - 33F 32F 15 0% - - 100% 0 mhos 92 - None None - -
12/06/2016 00:57 Ice Warning 9.3F - 33F 32F 5 0% - - 100% 0 mhos 90 - None None - -
12/06/2016 00:51 Ice Warning 9.3F - 33F 32F 5 0% - - 100% 0 mhos 91 - None None - -
12/06/2016 00:46 Ice Warning 9.1F - 33F 32F 5 0% - - 100% 0 mhos 90 - None None - -
12/06/2016 00:36 Ice Warning 8.6F - 33F 32F 5 0% - - 100% 0 mhos 90 - None None - -
12/06/2016 00:35 Ice Warning 8.6F - 33F 32F 5 0% - - 100% 0 mhos 90 - None None - -
12/06/2016 00:26 Ice Warning 8.4F - 33F 32F 5 0% - - 100% 0 mhos 90 - None None - -
12/06/2016 00:20 Ice Warning 8.4F - 33F 32F 5 0% - - 100% 0 mhos 90 - None None - -
12/06/2016 00:16 Ice Warning 8.4F - 33F 32F 5 0% - - 100% 0 mhos 89 - None None - -
12/06/2016 00:06 Ice Warning 8.4F - 33F 32F 5 0% - - 100% 0 mhos 90 - None None - -
12/06/2016 00:05 Ice Warning 8.4F - 33F 32F 5 0% - - 100% 0 mhos 90 - None None - -
12/05/2016 23:56 Ice Warning 8.4F - 33F 32F 5 0% - - 100% 0 mhos 90 - None None - -
12/05/2016 23:50 Ice Warning 8.4F - 33F 32F 5 0% - - 100% 0 mhos 89 - None None - -
12/05/2016 23:46 Ice Warning 8.2F - 33F 32F 5 0% - - 100% 0 mhos 90 - None None - -
12/05/2016 23:36 Ice Warning 8.2F - 33F 32F 5 0% - - 100% 0 mhos 91 - None None - -
Date/Time
(MST)
Sf
Temp Chem Water Layer Surface Precipitation
Sfc Pvt Sub Frz Factor Pct Dpth DpthThk IcePct Cond Salin FI Type Intens Accum Rate
12/05/2016 23:36 Ice Warning 8.2F - 33F 32F 5 0% - - 100% 0 mhos 92 - None None - -
12/05/2016 23:26 Ice Warning 8.1F - 33F 32F 5 0% - - 100% 0 mhos 91 - None None - -
12/05/2016 23:20 Ice Warning 7.7F - 33F 32F 5 0% - - 100% 0 mhos 90 - None None - -
12/05/2016 23:16 Ice Warning 7.3F - 33F 32F 5 0% - - 100% 0 mhos 90 - None None - -
12/05/2016 23:06 Ice Warning 7.3F - 33F 32F 5 0% - - 100% 0 mhos 89 - None None - -
12/05/2016 23:06 Ice Warning 7.3F - 33F 32F 5 0% - - 100% 0 mhos 89 - None None - -
12/05/2016 22:56 Ice Warning 7.7F - 33F 32F 5 0% - - 100% 0 mhos 89 - None None - -
12/05/2016 22:51 Ice Warning 8.1F - 33F 32F 5 0% - - 100% 0 mhos 90 - None None - -
12/05/2016 22:46 Ice Warning 8.2F - 33F 32F 5 0% - - 100% 0 mhos 91 - None None - -
12/05/2016 22:36 Ice Warning 9.0F - 33F 32F 5 0% - - 100% 0 mhos 93 - None None - -
12/05/2016 22:36 Ice Warning 9.0F - 33F 32F 5 0% - - 100% 0 mhos 94 - None None - -
12/05/2016 22:26 Ice Warning 9.5F - 33F 32F 5 0% - - 100% 0 mhos 95 - None None - -
12/05/2016 22:21 Ice Warning 9.9F - 33F 32F 5 0% - - 100% 0 mhos 95 - None None - -
12/05/2016 22:16 Ice Warning 10.2F - 33F 32F 5 0% - - 100% 0 mhos 95 - None None - -
12/05/2016 22:06 Ice Warning 10.6F - 33F 32F 5 0% - - 100% 0 mhos 93 - None None - -
Date/Time
(MST)
Sf
Temp Chem Water Layer Surface Precipitation
Sfc Pvt Sub Frz Factor Pct Dpth DpthThk IcePct Cond Salin FI Type Intens Accum Rate
12/05/2016 22:05 Ice Warning 10.4F - 33F 32F 5 0% - - 100% 0 mhos 94 - None None - -
12/05/2016 21:56 Ice Warning 10.2F - 33F 32F 5 0% - - 100% 0 mhos 94 - None None - -
12/05/2016 21:51 Ice Warning 10.6F - 33F 32F 5 0% - - 100% 0 mhos 94 - None None - -
12/05/2016 21:46 Ice Warning 10.8F - 33F 32F 10 0% - - 100% 0 mhos 93 - None None - -
12/05/2016 21:36 Ice Warning 10.8F - 33F 32F 10 0% - - 100% 0 mhos 93 - None None - -
12/05/2016 21:35 Ice Warning 10.8F - 33F 32F 10 0% - - 100% 0 mhos 93 - None None - -
12/05/2016 21:26 Ice Warning 10.2F - 33F 32F 5 0% - - 100% 0 mhos 94 - None None - -
12/05/2016 21:21 Ice Warning 10.4F - 33F 32F 10 0% - - 100% 0 mhos 93 - None None - -
12/05/2016 21:16 Ice Warning 10.4F - 33F 32F 15 0% - - 100% 0 mhos 93 - None None - -
12/05/2016 21:06 Ice Warning 10.4F - 33F 32F 5 0% - - 100% 0 mhos 93 - None None - -
12/05/2016 21:05 Ice Warning 10.4F - 33F 32F 5 0% - - 100% 0 mhos 93 - None None - -
12/05/2016 20:55 Ice Warning 10.8F - 33F 32F 5 0% - - 100% 0 mhos 93 - None None - -
12/05/2016 20:50 Ice Warning 10.9F - 33F 32F 5 0% - - 100% 0 mhos 93 - None None - -
12/05/2016 20:45 Ice Warning 11.1F - 33F 32F 10 0% - - 100% 0 mhos 93 - None None - -
12/05/2016 20:36 Ice Warning 11.1F - 33F 32F 10 0% - - 100% 0 mhos 94 - None None - -
Date/Time
(MST)
Sf
Temp Chem Water Layer Surface Precipitation
Sfc Pvt Sub Frz Factor Pct Dpth DpthThk IcePct Cond Salin FI Type Intens Accum Rate
12/05/2016 20:35 Ice Warning 11.1F - 33F 32F 10 0% - - 100% 0 mhos 94 - None None - -
12/05/2016 20:25 Ice Warning 10.9F - 34F 32F 5 0% - - 100% 0 mhos 94 - None None - -
12/05/2016 20:20 Ice Warning 10.9F - 34F 32F 5 0% - - 100% 0 mhos 93 - None None - -
12/05/2016 20:15 Ice Warning 10.6F - 34F 32F 5 0% - - 100% 0 mhos 93 - None None - -
12/05/2016 20:05 Ice Warning 10.2F - 34F 32F 5 0% - - 100% 0 mhos 93 - None None - -
12/05/2016 20:05 Ice Warning 10.2F - 34F 32F 5 0% - - 100% 0 mhos 93 - None None - -
12/05/2016 19:55 Ice Warning 10.2F - 34F 32F 5 0% - - 100% 0 mhos 93 - None None - -
12/05/2016 19:50 Ice Warning 10.2F - 34F 32F 5 0% - - 100% 0 mhos 93 - None None - -
12/05/2016 19:45 Ice Warning 10.2F - 34F 32F 5 0% - - 100% 0 mhos 94 - None None - -
12/05/2016 19:35 Ice Warning 10.2F - 34F 32F 5 0% - - 100% 0 mhos 94 - None None - -
12/05/2016 19:35 Ice Warning 10.2F - 34F 32F 5 0% - - 100% 0 mhos 94 - None None - -
12/05/2016 19:25 Ice Warning 10.2F - 34F 32F 5 0% - - 100% 0 mhos 93 - None None - -
12/05/2016 19:21 Ice Warning 10.2F - 34F 32F 5 0% - - 100% 0 mhos 94 - None None - -
12/05/2016 19:15 Ice Warning 10.0F - 34F 32F 5 0% - - 100% 0 mhos 95 - None None - -
12/05/2016 19:05 Ice Warning 10.0F - 34F 32F 5 0% - - 100% 0 mhos 95 - None None - -
Date/Time
(MST)
Sf
Temp Chem Water Layer Surface Precipitation
Sfc Pvt Sub Frz Factor Pct Dpth DpthThk IcePct Cond Salin FI Type Intens Accum Rate
12/05/2016 19:05 Ice Warning 10.0F - 34F 32F 5 0% - - 100% 0 mhos 95 - None None - -
12/05/2016 18:55 Ice Warning 10.2F - 34F 32F 10 0% - - 100% 0 mhos 96 - None None - -
12/05/2016 18:51 Ice Warning 10.2F - 34F 32F 15 0% - - 100% 0 mhos 96 - None None - -
12/05/2016 18:45 Ice Warning 10.6F - 34F 32F 15 0% - - 100% 0 mhos 96 - None None - -
12/05/2016 18:35 Ice Warning 10.9F - 34F 32F 15 0% - - 100% 0 mhos 98 - None None - -
12/05/2016 18:35 Ice Warning 11.1F - 34F 32F 15 0% - - 100% 0 mhos 96 - None None - -
12/05/2016 18:25 Ice Warning 11.3F - 34F 32F 20 0% - - 100% 0 mhos 97 - None None - -
12/05/2016 18:20 Ice Warning 11.5F - 34F 32F 30 0% - - 100% 0 mhos 94 - None None - -
12/05/2016 18:15 Ice Warning 11.8F - 34F 32F 20 0% - - 100% 0 mhos 94 - None None - -
12/05/2016 18:05 Ice Warning 12.2F - 34F 32F 30 0% - - 100% 0 mhos 94 - None None - -
12/05/2016 18:05 Ice Warning 12.4F - 34F 32F 35 0% - - 100% 0 mhos 93 - None None - -
12/05/2016 17:55 Ice Warning 13.1F - 34F 32F 15 0% - - 100% 0 mhos 91 - None None - -
12/05/2016 17:51 Ice Warning 13.1F - 34F 32F 20 0% - - 100% 0 mhos 91 - None None - -
12/05/2016 17:45 Ice Warning 13.5F - 34F 32F 20 0% - - 100% 0 mhos 88 - None None - -
12/05/2016 17:35 Ice Warning 13.8F - 34F 32F 20 0% - - 100% 0 mhos 86 - None None - -
Date/Time
(MST)
Sf
Temp Chem Water Layer Surface Precipitation
Sfc Pvt Sub Frz Factor Pct Dpth DpthThk IcePct Cond Salin FI Type Intens Accum Rate
12/05/2016 17:35 Ice Warning 13.8F - 34F 32F 25 0% - - 100% 0 mhos 86 - None None - -
12/05/2016 17:25 Ice Warning 14.0F - 34F 32F 25 0% - - 100% 0 mhos 83 - None None - -
12/05/2016 17:20 Ice Warning 14.2F - 34F 32F 15 0% - - 100% 0 mhos 81 - None None - -
12/05/2016 17:15 Ice Warning 14.2F - 34F 32F 10 0% - - 100% 0 mhos 79 - None None - -
12/05/2016 17:05 Ice Warning 14.2F - 34F 32F 5 0% - - 100% 0 mhos 76 - None None - -
12/05/2016 17:04 Ice Warning 14.2F - 34F 32F 5 0% - - 100% 0 mhos 76 - None None - -
12/05/2016 16:54 Ice Warning 15.3F - 34F 32F 5 0% - - 100% 0 mhos 73 - None None - -
12/05/2016 16:50 Ice Warning 15.6F - 34F 32F 5 0% - - 100% 0 mhos 71 - None None - -
12/05/2016 16:44 Ice Warning 16.2F - 34F 32F 5 0% - - 100% 0 mhos 69 - None None - -
12/05/2016 16:35 Ice Warning 16.3F - 34F 32F 10 0% - - 100% 0 mhos 66 - None None - -
12/05/2016 16:34 Ice Warning 16.3F - 34F 32F 10 0% - - 100% 0 mhos 66 - None None - -
12/05/2016 16:24 Ice Warning 17.1F - 34F 32F 10 0% - - 100% 0 mhos 63 - None None - -
12/05/2016 16:20 Ice Warning 17.6F - 34F 32F 15 0% - - 100% 0 mhos 62 - None None - -
12/05/2016 16:14 Ice Warning 18.1F - 34F 32F 15 0% - - 100% 0 mhos 61 - None None - -
12/05/2016 16:06 Ice Warning 18.5F - 34F 32F 10 0% - - 100% 0 mhos 59 - None None - -
Date/Time
(MST)
Sf
Temp Chem Water Layer Surface Precipitation
Sfc Pvt Sub Frz Factor Pct Dpth DpthThk IcePct Cond Salin FI Type Intens Accum Rate
12/05/2016 16:04 Ice Warning 18.5F - 34F 32F 10 0% - - 100% 0 mhos 59 - None None - -
12/05/2016 15:54 Ice Warning 18.3F - 34F 32F 5 0% - - 100% 0 mhos 61 - None None - -
12/05/2016 15:50 Ice Warning 18.1F - 34F 32F 5 0% - - 100% 0 mhos 61 - None None - -
12/05/2016 15:44 Ice Warning 18.3F - 34F 32F 5 0% - - 100% 0 mhos 58 - None None - -
12/05/2016 15:36 Ice Warning 18.3F - 34F 32F 5 0% - - 100% 0 mhos 60 - None None - -
12/05/2016 15:34 Ice Warning 18.3F - 34F 32F 5 0% - - 100% 0 mhos 60 - None None - -
12/05/2016 15:24 Ice Warning 18.5F - 34F 32F 5 0% - - 100% 0 mhos 60 - None None - -
12/05/2016 15:20 Ice Warning 18.7F - 34F 32F 10 0% - - 100% 0 mhos 59 - None None - -
12/05/2016 15:14 Ice Warning 19.4F - 34F 32F 5 0% - - 100% 0 mhos 59 - None None - -
12/05/2016 15:06 Ice Warning 19.9F - 34F 32F 15 0% - - 100% 0 mhos 56 - None None - -
12/05/2016 15:04 Ice Warning 20.1F - 34F 32F 15 0% - - 100% 0 mhos 56 - None None - -
12/05/2016 14:54 Ice Warning 21.4F - 34F 32F 5 0% - - 100% 0 mhos 55 - None None - -
12/05/2016 14:51 Ice Warning 21.6F - 34F 32F 5 0% - - 100% 0 mhos 55 - None None - -
12/05/2016 14:44 Ice Warning 22.1F - 34F 32F 5 0% - - 100% 0 mhos 54 - None None - -
12/05/2016 14:35 Ice Warning 22.5F - 34F 32F 15 0% - - 100% 0 mhos 52 - None None - -
Date/Time
(MST)
Sf
Temp Chem Water Layer Surface Precipitation
Sfc Pvt Sub Frz Factor Pct Dpth DpthThk IcePct Cond Salin FI Type Intens Accum Rate
12/05/2016 14:34 Ice Warning 22.5F - 34F 32F 15 0% - - 100% 0 mhos 52 - None None - -
12/05/2016 14:24 Ice Warning 23.5F - 34F 32F 5 0% - - 100% 0 mhos 52 - None None - -
12/05/2016 14:21 Ice Warning 23.5F - 34F 32F 5 0% - - 100% 0 mhos 51 - None None - -
12/05/2016 14:14 Ice Warning 23.9F - 34F 32F 5 0% - - 100% 0 mhos 51 - None None - -
12/05/2016 14:05 Ice Warning 23.9F - 34F 32F 5 0% - - 100% 0 mhos 51 - None None - -
12/05/2016 14:04 Ice Warning 23.9F - 34F 32F 5 0% - - 100% 0 mhos 51 - None None - -
12/05/2016 13:54 Ice Warning 24.6F - 34F 32F 5 0% - - 100% 0 mhos 50 - None None - -
12/05/2016 13:50 Ice Warning 24.4F - 34F 32F 5 0% - - 100% 0 mhos 51 - None None - -
12/05/2016 13:44 Ice Warning 24.4F - 34F 32F 5 0% - - 100% 0 mhos 51 - None None - -
12/05/2016 13:36 Ice Warning 24.3F - 34F 32F 20 0% - - 100% 0 mhos 50 - None None - -
12/05/2016 13:34 Ice Warning 24.1F - 34F 32F 5 0% - - 100% 0 mhos 52 - None None - -
12/05/2016 13:24 Ice Warning 24.4F - 34F 32F 35 0% - - 100% 0 mhos 50 - None None - -
12/05/2016 13:21 Ice Warning 24.4F - 34F 32F 5 0% - - 100% 0 mhos 52 - None None - -
12/05/2016 13:14 Ice Warning 23.9F - 34F 32F 5 0% - - 100% 0 mhos 53 - None None - -
12/05/2016 13:06 Ice Warning 24.1F - 35F 32F 5 0% - - 100% 0 mhos 53 - None None - -
Date/Time
(MST)
Sf
Temp Chem Water Layer Surface Precipitation
Sfc Pvt Sub Frz Factor Pct Dpth DpthThk IcePct Cond Salin FI Type Intens Accum Rate
12/05/2016 13:04 Ice Warning 23.9F - 35F 32F 5 0% - - 100% 0 mhos 53 - None None - -
12/05/2016 12:53 Ice Warning 24.4F - 35F 32F 5 0% - - 100% 0 mhos 52 - None None - -
12/05/2016 12:51 Ice Warning 24.1F - 35F 32F 5 0% - - 100% 0 mhos 53 - None None - -
12/05/2016 12:43 Ice Warning 24.3F - 35F 32F 5 0% - - 100% 0 mhos 51 - None None - -
12/05/2016 12:36 Ice Warning 24.1F - 35F 32F 25 0% - - 100% 0 mhos 52 - None None - -
12/05/2016 12:33 Ice Warning 24.6F - 35F 32F 5 0% - - 100% 0 mhos 52 - None None - -
12/05/2016 12:23 Ice Warning 23.9F - 35F 32F 10 0% - - 100% 0 mhos 53 - None None - -
12/05/2016 12:20 Ice Warning 23.7F - 35F 32F 15 0% - - 100% 0 mhos 53 - None None - -
12/05/2016 12:13 Ice Warning 23.0F - 35F 32F 20 0% - - 100% 0 mhos 56 - None None - -
12/05/2016 12:06 Ice Warning 22.8F - 35F 32F 20 0% - - 100% 0 mhos 56 - None None - -
12/05/2016 12:03 Ice Warning 22.8F - 35F 32F 15 0% - - 100% 0 mhos 56 - None None - -
12/05/2016 11:53 Ice Warning 22.5F - 35F 32F 15 0% - - 100% 0 mhos 57 - None None - -
12/05/2016 11:51 Ice Warning 22.3F - 35F 32F 20 0% - - 100% 0 mhos 58 - None None - -
12/05/2016 11:43 Ice Warning 22.5F - 35F 32F 15 0% - - 100% 0 mhos 57 - None None - -
12/05/2016 11:36 Ice Warning 22.1F - 35F 32F 15 0% - - 100% 0 mhos 58 - None None - -
Date/Time
(MST)
Sf
Temp Chem Water Layer Surface Precipitation
Sfc Pvt Sub Frz Factor Pct Dpth DpthThk IcePct Cond Salin FI Type Intens Accum Rate
12/05/2016 11:33 Ice Warning 21.9F - 35F 32F 20 0% - - 100% 0 mhos 58 - None None - -
12/05/2016 11:23 Ice Warning 21.4F - 35F 32F 25 0% - - 100% 0 mhos 59 - None None - -
12/05/2016 11:20 Ice Warning 21.4F - 35F 32F 20 0% - - 100% 0 mhos 60 - None None - -
12/05/2016 11:13 Ice Warning 21.4F - 35F 32F 20 0% - - 100% 0 mhos 59 - None None - -
12/05/2016 11:05 Ice Warning 20.8F - 35F 32F 25 0% - - 100% 0 mhos 61 - None None - -
12/05/2016 11:03 Ice Warning 20.7F - 35F 32F 25 0% - - 100% 0 mhos 60 - None None - -
12/05/2016 10:53 Ice Warning 19.0F - 35F 32F 20 0% - - 100% 0 mhos 63 - None None - -
12/05/2016 10:50 Ice Warning 18.9F - 35F 32F 25 0% - - 100% 0 mhos 63 - None None - -
12/05/2016 10:43 Ice Warning 18.5F - 35F 32F 20 0% - - 100% 0 mhos 64 - None None - -
12/05/2016 10:36 Ice Warning 18.1F - 35F 32F 20 0% - - 100% 0 mhos 64 - None None - -
12/05/2016 10:33 Ice Warning 17.8F - 35F 32F 20 0% - - 100% 0 mhos 64 - None None - -
12/05/2016 10:23 Ice Warning 16.9F - 35F 32F 25 0% - - 100% 0 mhos 65 - None None - -
12/05/2016 10:20 Ice Warning 16.7F - 35F 32F 15 0% - - 100% 0 mhos 66 - None None - -
12/05/2016 10:13 Ice Warning 16.2F - 35F 32F 15 0% - - 100% 0 mhos 66 - None None - -
12/05/2016 10:06 Ice Warning 15.8F - 35F 32F 15 0% - - 100% 0 mhos 66 - None None - -
Date/Time
(MST)
Sf
Temp Chem Water Layer Surface Precipitation
Sfc Pvt Sub Frz Factor Pct Dpth DpthThk IcePct Cond Salin FI Type Intens Accum Rate
12/05/2016 10:03 Ice Warning 15.6F - 35F 32F 15 0% - - 100% 0 mhos 66 - None None - -
12/05/2016 09:53 Ice Warning 15.3F - 35F 32F 15 0% - - 100% 0 mhos 66 - None None - -
12/05/2016 09:51 Ice Warning 15.1F - 35F 32F 15 0% - - 100% 0 mhos 66 - None None - -
12/05/2016 09:43 Ice Warning 14.9F - 35F 32F 15 0% - - 100% 0 mhos 66 - None None - -
12/05/2016 09:36 Ice Warning 14.5F - 35F 32F 15 0% - - 100% 0 mhos 66 - None None - -
12/05/2016 09:33 Ice Warning 14.5F - 35F 32F 15 0% - - 100% 0 mhos 66 - None None - -
12/05/2016 09:23 Ice Warning 14.4F - 35F 32F 15 0% - - 100% 0 mhos 65 - None None - -
12/05/2016 09:20 Ice Warning 14.4F - 35F 32F 15 0% - - 100% 0 mhos 65 - None None - -
12/05/2016 09:13 Ice Warning 14.4F - 35F 32F 15 0% - - 100% 0 mhos 65 - None None - -
12/05/2016 09:05 Ice Warning 14.4F - 35F 32F 15 0% - - 100% 0 mhos 65 - None None - -
12/05/2016 09:02 Ice Warning 14.4F - 35F 32F 15 0% - - 100% 0 mhos 64 - None None - -
12/05/2016 08:52 Ice Warning 14.7F - 35F 32F 15 0% - - 100% 0 mhos 63 - None None - -
12/05/2016 08:50 Ice Warning 14.7F - 35F 32F 15 0% - - 100% 0 mhos 63 - None None - -
12/05/2016 08:42 Ice Warning 14.9F - 35F 32F 20 0% - - 100% 0 mhos 63 - None None - -
12/05/2016 08:36 Ice Warning 15.3F - 35F 32F 15 0% - - 100% 0 mhos 62 - None None - -
Date/Time
(MST)
Sf
Temp Chem Water Layer Surface Precipitation
Sfc Pvt Sub Frz Factor Pct Dpth DpthThk IcePct Cond Salin FI Type Intens Accum Rate
12/05/2016 08:32 Ice Warning 15.4F - 35F 32F 15 0% - - 100% 0 mhos 61 - None None - -
12/05/2016 08:22 Ice Warning 16.0F - 35F 32F 20 0% - - 100% 0 mhos 61 - Yes - - -
12/05/2016 08:21 Ice Warning 16.0F - 35F 32F 20 0% - - 100% 0 mhos 61 - Yes - - -
12/05/2016 08:12 Ice Warning 16.5F - 35F 32F 15 0% - - 100% 0 mhos 60 - None None - -
12/05/2016 08:05 Ice Warning 16.9F - 35F 32F 15 0% - - 100% 0 mhos 59 - Yes - - -
12/05/2016 08:02 Ice Warning 16.9F - 35F 32F 15 0% - - 100% 0 mhos 59 - None None - -
12/05/2016 07:52 Ice Warning 16.9F - 35F 32F 20 0% - - 100% 0 mhos 59 - None None - -
12/05/2016 07:50 Ice Warning 16.9F - 35F 32F 30 0% - - 100% 0 mhos 59 - None None - -
12/05/2016 07:42 Ice Warning 16.9F - 35F 32F 20 0% - - 100% 0 mhos 59 - None None - -
12/05/2016 07:35 Ice Warning 16.9F - 35F 32F 35 0% - - 100% 0 mhos 58 - None None - -
12/05/2016 07:32 Ice Warning 16.9F - 35F 32F 20 0% - - 100% 0 mhos 59 - Yes - - -
12/05/2016 07:22 Ice Warning 16.9F - 35F 32F 30 0% - - 100% 0 mhos 58 - None None - -
12/05/2016 07:20 Ice Warning 17.1F - 35F 32F 20 0% - - 100% 0 mhos 58 - None None - -
12/05/2016 07:12 Ice Warning 16.9F - 35F 32F 40 0% - - 100% 0 mhos 57 - None None - -
12/05/2016 07:05 Ice Warning 16.7F - 35F 32F 25 0% - - 100% 0 mhos 58 - None None - -
Date/Time
(MST)
Sf
Temp Chem Water Layer Surface Precipitation
Sfc Pvt Sub Frz Factor Pct Dpth DpthThk IcePct Cond Salin FI Type Intens Accum Rate
12/05/2016 07:02 Ice Warning 16.7F - 35F 32F 25 0% - - 100% 0 mhos 57 - None None - -
12/05/2016 06:52 Ice Warning 16.5F - 35F 32F 20 0% - - 100% 0 mhos 57 - None None - -
12/05/2016 06:50 Ice Warning 16.3F - 35F 32F 20 0% - - 100% 0 mhos 57 - None None - -
12/05/2016 06:42 Ice Warning 16.2F - 35F 32F 20 0% - - 100% 0 mhos 56 - None None - -
12/05/2016 06:36 Ice Warning 16.2F - 35F 32F 20 0% - - 100% 0 mhos 56 - None None - -
12/05/2016 06:32 Ice Warning 16.2F - 35F 32F 20 0% - - 100% 0 mhos 56 - None None - -
12/05/2016 06:22 Ice Warning 16.3F - 35F 32F 20 0% - - 100% 0 mhos 55 - None None - -
12/05/2016 06:20 Ice Warning 16.5F - 35F 32F 20 0% - - 100% 0 mhos 55 - None None - -
12/05/2016 06:12 Ice Warning 17.4F - 35F 32F 30 0% - - 100% 0 mhos 55 - None None - -
12/05/2016 06:05 Ice Warning 17.4F - 36F 32F 20 0% - - 100% 0 mhos 55 - None None - -
12/05/2016 06:02 Ice Warning 17.2F - 36F 32F 15 0% - - 100% 0 mhos 55 - Yes - - -
12/05/2016 05:52 Ice Warning 16.7F - 36F 32F 15 0% - - 100% 0 mhos 55 - None None - -
12/05/2016 05:51 Ice Warning 16.7F - 36F 32F 15 0% - - 100% 0 mhos 54 - None None - -
12/05/2016 05:42 Ice Warning 16.5F - 36F 32F 15 0% - - 100% 0 mhos 54 - None None - -
12/05/2016 05:36 Ice Warning 16.5F - 36F 32F 15 0% - - 100% 0 mhos 54 - None None - -
Date/Time
(MST)
Sf
Temp Chem Water Layer Surface Precipitation
Sfc Pvt Sub Frz Factor Pct Dpth DpthThk IcePct Cond Salin FI Type Intens Accum Rate
12/05/2016 05:32 Ice Warning 16.5F - 36F 32F 15 0% - - 100% 0 mhos 54 - None None - -
12/05/2016 05:22 Ice Warning 16.5F - 36F 32F 25 0% - - 100% 0 mhos 54 - None None - -
12/05/2016 05:21 Ice Warning 16.5F - 36F 32F 15 0% - - 100% 0 mhos 54 - None None - -
12/05/2016 05:12 Ice Warning 16.5F - 36F 32F 15 0% - - 100% 0 mhos 53 - None None - -
12/05/2016 05:05 Ice Warning 16.7F - 36F 32F 15 0% - - 100% 0 mhos 53 - None None - -
12/05/2016 05:02 Ice Warning 16.7F - 36F 32F 15 0% - - 100% 0 mhos 53 - None None - -
12/05/2016 04:51 Ice Warning 16.7F - 36F 32F 15 0% - - 100% 0 mhos 52 - None None - -
12/05/2016 04:50 Ice Warning 16.7F - 36F 32F 15 0% - - 100% 0 mhos 52 - None None - -
12/05/2016 04:41 Ice Warning 16.7F - 36F 32F 15 0% - - 100% 0 mhos 52 - None None - -
12/05/2016 04:35 Ice Warning 16.7F - 36F 32F 15 0% - - 100% 0 mhos 52 - None None - -
12/05/2016 04:31 Ice Warning 16.7F - 36F 32F 15 0% - - 100% 0 mhos 52 - None None - -
12/05/2016 04:21 Ice Warning 16.9F - 36F 32F 15 0% - - 100% 0 mhos 51 - None None - -
12/05/2016 04:20 Ice Warning 16.9F - 36F 32F 15 0% - - 100% 0 mhos 51 - None None - -
12/05/2016 04:11 Ice Warning 16.9F - 36F 32F 15 0% - - 100% 0 mhos 51 - None None - -
12/05/2016 04:05 Ice Warning 17.1F - 36F 32F 15 0% - - 100% 0 mhos 50 - None None - -
Date/Time
(MST)
Sf
Temp Chem Water Layer Surface Precipitation
Sfc Pvt Sub Frz Factor Pct Dpth DpthThk IcePct Cond Salin FI Type Intens Accum Rate
12/05/2016 04:01 Ice Warning 17.2F - 36F 32F 15 0% - - 100% 0 mhos 50 - None None - -
12/05/2016 03:51 Ice Warning 17.2F - 36F 32F 15 0% - - 100% 0 mhos 50 - None None - -
12/05/2016 03:50 Ice Warning 17.4F - 36F 32F 15 0% - - 100% 0 mhos 50 - None None - -
12/05/2016 03:41 Ice Warning 17.6F - 36F 32F 10 0% - - 100% 0 mhos 50 - None None - -
12/05/2016 03:35 Ice Warning 18.0F - 36F 32F 10 0% - - 100% 0 mhos 49 - None None - -
12/05/2016 03:31 Ice Warning 18.1F - 36F 32F 15 0% - - 100% 0 mhos 49 - None None - -
12/05/2016 03:21 Ice Warning 18.7F - 36F 32F 25 0% - - 100% 0 mhos 49 - None None - -
12/05/2016 03:20 Ice Warning 18.7F - 36F 32F 25 0% - - 100% 0 mhos 49 - None None - -
12/05/2016 03:11 Ice Warning 19.2F - 36F 32F 15 0% - - 100% 0 mhos 49 - None None - -
12/05/2016 03:06 Ice Warning 19.6F - 36F 32F 15 0% - - 100% 0 mhos 49 - None None - -
12/05/2016 03:01 Ice Warning 19.9F - 36F 32F 15 0% - - 100% 0 mhos 49 - None None - -
12/05/2016 02:51 Ice Warning 20.7F - 36F 32F 15 0% - - 100% 0 mhos 48 - None None - -
12/05/2016 02:50 Ice Warning 20.7F - 36F 32F 15 0% - - 100% 0 mhos 48 - None None - -
12/05/2016 02:41 Ice Warning 21.2F - 36F 32F 15 0% - - 100% 0 mhos 48 - None None - -
12/05/2016 02:36 Ice Warning 21.4F - 36F 32F 15 0% - - 100% 0 mhos 47 - None None - -
Date/Time
(MST)
Sf
Temp Chem Water Layer Surface Precipitation
Sfc Pvt Sub Frz Factor Pct Dpth DpthThk IcePct Cond Salin FI Type Intens Accum Rate
12/05/2016 02:31 Ice Warning 21.4F - 36F 32F 15 0% - - 100% 0 mhos 47 - None None - -
12/05/2016 02:21 Ice Warning 21.4F - 36F 32F 15 0% - - 100% 0 mhos 47 - None None - -
12/05/2016 02:20 Ice Warning 21.4F - 36F 32F 15 0% - - 100% 0 mhos 47 - None None - -
12/05/2016 02:11 Ice Warning 21.7F - 36F 32F 15 0% - - 100% 0 mhos 46 - None None - -
12/05/2016 02:06 Ice Warning 21.9F - 36F 32F 15 0% - - 100% 0 mhos 46 - None None - -
12/05/2016 02:01 Ice Warning 21.9F - 36F 32F 15 0% - - 100% 0 mhos 46 - None None - -
12/05/2016 01:51 Ice Warning 21.9F - 36F 32F 10 0% - - 100% 0 mhos 46 - None None - -
12/05/2016 01:51 Ice Warning 21.9F - 36F 32F 10 0% - - 100% 0 mhos 46 - None None - -
12/05/2016 01:41 Ice Warning 22.1F - 36F 32F 10 0% - - 100% 0 mhos 45 - None None - -
12/05/2016 01:35 Ice Warning 22.1F - 36F 32F 10 0% - - 100% 0 mhos 45 - None None - -
12/05/2016 01:31 Ice Warning 21.9F - 36F 32F 15 0% - - 100% 0 mhos 45 - None None - -
12/05/2016 01:21 Ice Warning 21.9F - 36F 32F 15 0% - - 100% 0 mhos 44 - None None - -
12/05/2016 01:20 Ice Warning 21.9F - 36F 32F 15 0% - - 100% 0 mhos 44 - None None - -
Change End Date:

Copyright © 1998-2015 Vaisala, Inc.
All Rights Reserved
Send comments about the data to:
SCAN Web ® is a registered trademark of Vaisala, Inc.
SCAN Web Version 6.0